Simultaneous Nadir Overpasses (SNOs) Predictions

Prediction of SNOs between GOES-15 and LANDSAT-8 Satellite Orbit:

Table of predicted SNOs for the next 14.0 days since TLE Epoch: 2/24/2024
Index Date Time (GOES-15) GOES-15 Lat,Lon LANDSAT-8 Lat,Lon Distance(km) Time Diff (sec)
1 02/24/2024 05:59:13 0.01, 61.37 -0.47, 63.52 245.07 80
2 02/24/2024 18:20:37 -0.00, 61.33 -0.63, 58.33 340.85 80
3 02/26/2024 18:05:44 -0.01, 61.31 -0.03, 61.29 3.70 80
4 02/28/2024 17:53:32 -0.01, 61.30 0.64, 64.24 335.00 80
5 02/29/2024 06:14:47 0.01, 61.34 0.47, 59.09 255.66 80
6 03/02/2024 06:05:14 0.01, 61.34 -0.17, 62.05 81.49 80
7 03/04/2024 05:53:00 0.00, 61.34 -0.76, 65.02 417.87 80
8 03/04/2024 18:14:23 0.00, 61.29 -0.32, 59.82 167.55 80
9 03/06/2024 17:59:30 -0.00, 61.31 0.30, 62.79 168.01 80
10 03/07/2024 06:20:44 -0.01, 61.36 0.79, 57.63 424.44 80
